CAPE
0 0 0 0 0 0 0 0 0 0 0 0 0 0 0 0 0 0 0 0 0 0 0 0 0 0 0 1 98 277 585 833 1183 1464 890 639 632 455 516 839 1006 1057 901 744
0 0 0 0 0 0 0 0 0 0 0 0 0 0 0 0 0 0 0 0 0 0 0 0 0 0 0 0 0 0 0 151 384 900 1211 603 557 533 352 325 186 284 256 102
0 0 0 0 0 0 0 0 0 0 0 0 0 0 0 0 0 0 0 0 0 0 0 0 0 0 0 0 0 0 0 0 247 475 1108 500 17 0 152 349 228 100 48 27
0 0 0 0 0 0 0 0 0 0 0 0 0 0 0 0 0 0 0 0 0 0 0 0 0 0 0 0 0 0 0 0 0 113 272 1012 784 654 671 954 853 408 155 127
0 0 0 0 0 0 0 0 0 0 0 0 0 0 0 0 0 0 0 0 0 0 0 0 0 0 0 0 0 0 0 0 0 0 0 1 98 315 451 553 657 666 471 25
0 0 0 0 0 0 0 0 0 0 0 0 0 0 0 0 0 0 0 0 0 0 0 0 0 0 0 0 0 0 0 0 0 0 0 0 0 0 1 7 117 122 186 183
0 0 0 0 0 0 0 0 3 0 0 0 0 0 0 0 0 0 0 0 0 0 0 0 0 0 0 0 0 0 0 0 0 0 0 0 0 0 0 1 8 7 9 9
1 5 0 0 0 0 0 0 4 10 14 11 0 0 0 0 0 0 0 0 0 0 0 0 0 0 0 0 0 0 0 0 0 0 0 0 0 0 0 0 0 6 17 24
30 7 0 0 0 0 0 6 0 3 3 0 0 0 0 0 0 0 0 0 0 0 0 0 0 0 0 0 0 0 0 0 0 0 0 0 0 0 0 0 4 6 11 17
12 4 0 0 0 0 0 0 3 16 5 5 0 1 0 0 0 0 0 0 0 0 0 0 0 0 0 0 0 0 0 0 0 0 0 0 0 0 0 0 0 2 9 13
0 0 0 0 0 0 0 6 4 2 0 15 7 5 0 0 0 0 0 0 0 0 0 0 0 0 0 0 0 0 0 0 0 0 0 0 0 0 0 0 1 2 9 12
0 2 0 0 0 0 2 4 12 43 19 1 5 1 0 0 0 0 0 0 0 0 0 0 0 0 0 0 0 0 0 0 0 0 0 0 0 4 3 1 1 8 6 6
0 5 3 1 0 0 0 0 8 18 0 13 20 0 0 0 0 0 0 0 0 0 0 0 0 0 0 0 0 0 0 0 0 0 0 0 4 9 11 6 6 8 9 8
0 0 0 4 0 0 0 0 0 11 25 0 1 0 0 0 0 0 0 0 0 0 0 0 0 0 0 0 0 0 0 0 0 0 0 2 12 6 4 4 6 6 5 8
0 1 4 2 0 0 0 0 0 0 0 1 0 0 0 0 0 0 0 0 0 0 0 0 0 0 0 0 0 0 0 2 1 0 0 4 2 1 3 4 5 7 8 7
0 1 5 8 0 0 0 0 0 0 0 0 0 1 0 0 0 0 0 0 0 0 0 0 0 0 0 0 0 0 2 5 1 0 0 2 5 3 3 3 3 5 5 5
0 1 0 12 4 0 1 0 0 0 0 0 0 0 0 0 0 0 0 0 0 0 0 0 0 0 0 0 0 4 11 11 4 1 3 4 6 4 3 3 4 2 4 4
2 7 13 8 3 6 0 0 0 0 0 0 0 0 0 0 0 0 0 0 0 0 0 0 0 0 0 0 0 10 20 6 1 6 4 6 4 3 3 3 2 4 4 4
1 3 6 1 7 0 0 0 0 0 0 0 0 0 0 0 0 0 0 0 0 0 0 0 0 0 0 0 1 14 27 4 6 5 3 3 3 3 5 5 5 4 3 3
19 2 1 14 4 0 0 0 0 0 0 0 0 0 0 0 0 0 0 0 0 0 0 0 0 0 0 0 3 8 29 4 2 0 3 6 0 5 10 3 6 4 4 2
9 8 10 5 3 0 0 0 0 0 0 0 0 0 0 0 0 0 0 0 0 0 0 0 0 2 1 0 0 10 0 1 0 1 4 7 3 7 6 6 6 9 8 7
1 7 8 4 3 1 0 0 0 0 0 0 0 0 0 0 0 0 0 0 0 0 5 10 13 10 2 8 0 1 1 0 0 1 4 3 5 1 2 6 7 9 10 8
0 0 0 0 0 0 0 0 0 0 0 0 0 0 0 0 0 0 0 0 0 1 4 10 29 49 43 15 0 0 0 3 0 1 1 1 3 1 2 3 6 6 4 3
0 0 0 0 0 0 0 0 0 0 0 0 0 0 0 0 0 0 0 0 0 3 14 14 19 26 29 93 41 0 0 0 4 3 1 1 0 1 2 5 9 7 5 6
0 0 0 0 0 0 0 0 0 0 0 0 0 0 0 0 0 0 0 0 0 2 3 3 7 18 32 55 50 1 0 3 4 4 2 2 5 5 5 4 5 4 24 7
0 0 0 0 0 0 0 0 0 0 0 0 0 0 0 0 0 0 0 1 5 10 10 15 14 8 2 6 33 3 1 7 1 5 6 4 4 5 5 4 4 0 0 0
CIN
-0 -0 -0 -0 -0 -0 -0 -0 -0 -0 -0 -0 -0 -0 -0 -0 -0 -0 -0 -0 -0 -0 -0 -0 -0 -0 -0 -1 -349 -290 -234 -197 -149 -105 -180 -211 -206 -230 -200 -119 -78 -50 -56 -67
-0 -0 -0 -0 -0 -0 -0 -0 -0 -0 -0 -0 -0 -0 -0 -0 -0 -0 -0 -0 -0 -0 -0 -0 -0 -0 -0 -0 -0 -0 -0 -283 -231 -162 -128 -209 -212 -205 -226 -214 -250 -202 -170 -206
-0 -0 -0 -0 -0 -0 -0 -0 -0 -0 -0 -0 -0 -0 -0 -0 -0 -0 -0 -0 -0 -0 -0 -0 -0 -0 -0 -0 -0 -0 -0 -0 -190 -165 -75 -185 -138 -0 -285 -201 -279 -299 -312 -288
-0 -0 -0 -0 -0 -0 -0 -0 -0 -0 -0 -0 -0 -0 -0 -0 -0 -0 -0 -0 -0 -0 -0 -0 -0 -0 -0 -0 -0 -0 -0 -0 -0 -186 -72 -10 -29 -53 -69 -66 -88 -173 -241 -240
-0 -0 -0 -0 -0 -0 -0 -0 -0 -0 -0 -0 -0 -0 -0 -0 -0 -0 -0 -0 -0 -0 -0 -0 -0 -0 -0 -0 -0 -0 -0 -0 -0 -0 -0 -0 -98 -25 -12 -12 -14 -38 -83 -73
-0 -0 -0 -0 -0 -0 -0 -0 -0 -0 -0 -0 -0 -0 -0 -0 -0 -0 -0 -0 -0 -0 -0 -0 -0 -0 -0 -0 -0 -0 -0 -0 -0 -0 -0 -0 -0 -0 -0 -89 -65 -78 -83 -114
-0 -0 -0 -0 -0 -0 -0 -0 -0 -0 -0 -0 -0 -0 -0 -0 -0 -0 -0 -0 -0 -0 -0 -0 -0 -0 -0 -0 -0 -0 -0 -0 -0 -0 -0 -0 -0 -0 -0 -0 -0 -0 -0 -0
-0 -0 -0 -0 -0 -0 -0 -0 -0 -0 -0 -0 -0 -0 -0 -0 -0 -0 -0 -0 -0 -0 -0 -0 -0 -0 -0 -0 -0 -0 -0 -0 -0 -0 -0 -0 -0 -0 -0 -0 -0 -0 -0 -0
-0 -0 -0 -0 -0 -0 -0 -0 -0 -0 -0 -0 -0 -0 -0 -0 -0 -0 -0 -0 -0 -0 -0 -0 -0 -0 -0 -0 -0 -0 -0 -0 -0 -0 -0 -0 -0 -0 -0 -0 -0 -0 -0 -0
-4 -0 -0 -0 -0 -0 -0 -0 -0 -0 -0 -0 -0 -0 -0 -0 -0 -0 -0 -0 -0 -0 -0 -0 -0 -0 -0 -0 -0 -0 -0 -0 -0 -0 -0 -0 -0 -0 -0 -0 -0 -0 -0 -0
-0 -0 -0 -0 -0 -0 -0 -0 -0 -0 -0 -0 -0 -0 -0 -0 -0 -0 -0 -0 -0 -0 -0 -0 -0 -0 -0 -0 -0 -0 -0 -0 -0 -0 -0 -0 -0 -0 -0 -0 -0 -0 -0 -0
-0 -0 -0 -0 -0 -0 -0 -0 -0 -1 -0 -0 -0 -0 -0 -0 -0 -0 -0 -0 -0 -0 -0 -0 -0 -0 -0 -0 -0 -0 -0 -0 -0 -0 -0 -0 -0 -0 -0 -0 -0 -0 -0 -0
-0 -0 -0 -0 -0 -0 -0 -0 -0 -0 -2 -0 -0 -0 -0 -0 -0 -0 -0 -0 -0 -0 -0 -0 -0 -0 -0 -0 -0 -0 -0 -0 -0 -0 -0 -0 -0 -0 -0 -0 -0 -0 -0 -0
-0 -0 -0 -0 -0 -0 -0 -0 -0 -0 -0 -0 -0 -0 -0 -0 -0 -0 -0 -0 -0 -0 -0 -0 -0 -0 -0 -0 -0 -0 -0 -0 -0 -0 -0 -0 -0 -0 -0 -0 -0 -0 -0 -0
-0 -0 -0 -0 -0 -0 -0 -0 -0 -0 -0 -0 -0 -0 -0 -0 -0 -0 -0 -0 -0 -0 -0 -0 -0 -0 -0 -0 -0 -0 -0 -0 -0 -0 -0 -0 -0 -0 -0 -0 -0 -0 -0 -0
-0 -0 -0 -0 -0 -0 -0 -0 -0 -0 -0 -0 -0 -0 -0 -0 -0 -0 -0 -0 -0 -0 -0 -0 -0 -0 -0 -0 -0 -0 -0 -0 -0 -0 -0 -0 -0 -0 -0 -0 -0 -0 -0 -0
-0 -0 -0 -0 -0 -0 -0 -0 -0 -0 -0 -0 -0 -0 -0 -0 -0 -0 -0 -0 -0 -0 -0 -0 -0 -0 -0 -0 -0 -0 -0 -0 -0 -0 -0 -0 -0 -0 -0 -0 -0 -0 -0 -0
-0 -0 -0 -0 -0 -0 -0 -0 -0 -0 -0 -0 -0 -0 -0 -0 -0 -0 -0 -0 -0 -0 -0 -0 -0 -0 -0 -0 -0 -0 -0 -0 -0 -0 -0 -0 -0 -0 -0 -0 -0 -0 -0 -0
-0 -0 -0 -0 -0 -0 -0 -0 -0 -0 -0 -0 -0 -0 -0 -0 -0 -0 -0 -0 -0 -0 -0 -0 -0 -0 -0 -0 -0 -0 -20 -0 -0 -0 -0 -0 -0 -0 -0 -0 -0 -0 -0 -0
-0 -0 -0 -0 -0 -0 -0 -0 -0 -0 -0 -0 -0 -0 -0 -0 -0 -0 -0 -0 -0 -0 -0 -0 -0 -0 -0 -0 -3 -0 -57 -0 -0 -0 -0 -0 -0 -0 -0 -0 -0 -0 -0 -0
-0 -0 -0 -0 -0 -0 -0 -0 -0 -0 -0 -0 -0 -0 -0 -0 -0 -0 -0 -0 -0 -0 -0 -0 -0 -0 -0 -0 -0 -59 -0 -0 -0 -0 -0 -0 -0 -0 -0 -0 -0 -0 -0 -0
-0 -0 -0 -0 -0 -0 -0 -0 -0 -0 -0 -0 -0 -0 -0 -0 -0 -0 -0 -0 -0 -0 -0 -0 -0 -1 -2 -67 -15 -0 -0 -0 -0 -0 -0 -0 -0 -0 -0 -0 -0 -0 -0 -0
-0 -0 -0 -0 -0 -0 -0 -0 -0 -0 -0 -0 -0 -0 -0 -0 -0 -0 -0 -0 -0 -0 -0 -1 -0 -0 -1 -63 -34 -0 -0 -0 -0 -0 -0 -0 -0 -0 -0 -0 -0 -0 -0 -0
-0 -0 -0 -0 -0 -0 -0 -0 -0 -0 -0 -0 -0 -0 -0 -0 -0 -0 -0 -0 -0 -0 -3 -3 -3 -4 -7 -2 -45 -0 -0 -0 -0 -0 -0 -0 -0 -0 -0 -0 -0 -0 -0 -0
-0 -0 -0 -0 -0 -0 -0 -0 -0 -0 -0 -0 -0 -0 -0 -0 -0 -0 -0 -0 -0 -0 -0 -0 -23 -21 -21 -12 -29 -0 -0 -0 -0 -0 -0 -0 -0 -0 -0 -0 -0 -0 -0 -0
-0 -0 -0 -0 -0 -0 -0 -0 -0 -0 -0 -0 -0 -0 -0 -0 -0 -0 -0 -0 -0 -0 -0 -0 -0 -0 -15 -48 -23 -0 -0 -0 -0 -0 -0 -0 -0 -0 -0 -0 -0 -0 -0 -0
Wind_Speed
16 13 18 24 21 17 6 9 13 6 6 9 12 18 16 11 9 9 7 8 7 8 9 10 12 13 13 13 10 8 4 3 4 5 4 4 6 6 6 5 7 8 7 12
11 20 22 14 15 16 14 13 16 11 8 10 14 17 19 18 14 10 10 9 9 9 10 10 12 12 13 12 11 11 9 7 3 5 5 4 3 4 6 5 6 7 8 9
21 10 18 14 14 15 16 16 14 14 7 13 18 23 25 3 5 7 8 10 11 11 10 10 10 11 10 11 11 11 10 10 9 4 4 3 3 2 4 7 8 11 12 12
17 14 13 19 18 15 16 15 16 15 11 11 3 9 7 14 12 13 13 13 13 12 9 8 8 9 8 8 7 9 9 10 10 10 3 6 6 7 6 7 7 9 13 14
13 16 21 19 17 16 11 4 10 11 14 15 18 12 14 12 13 16 16 16 14 10 9 8 7 6 8 8 9 9 9 9 9 8 7 6 8 9 7 8 11 11 10 12
20 7 14 18 15 16 1 8 6 7 10 17 18 17 14 15 18 19 17 17 15 11 8 6 5 4 7 7 8 8 10 9 9 10 9 8 8 9 8 9 8 8 7 7
23 24 11 8 11 12 17 13 6 11 11 14 3 12 15 5 4 20 20 18 13 9 6 5 5 6 6 7 7 6 8 9 9 9 9 10 10 10 11 10 8 8 6 6
24 18 27 18 22 12 23 19 9 10 14 14 9 11 5 8 9 17 17 16 12 7 5 4 4 6 7 7 8 9 10 11 10 9 10 9 10 7 8 9 9 9 9 8
17 17 1 11 21 19 12 22 14 11 11 8 11 8 7 12 15 16 16 15 8 5 4 2 3 5 6 7 7 7 8 9 10 10 9 11 10 10 9 10 10 9 11 10
10 6 6 10 7 23 14 10 7 5 7 10 10 16 7 19 19 18 16 12 7 4 2 2 4 5 6 7 7 7 9 11 11 10 10 9 10 10 9 9 10 10 11 12
9 4 8 9 13 18 17 14 9 7 9 6 11 5 9 18 19 20 15 7 4 2 3 5 6 7 7 7 8 9 10 12 13 12 11 11 11 10 9 8 8 8 10 9
11 4 10 15 4 6 21 23 22 8 8 9 8 5 2 8 17 16 11 4 2 1 5 7 7 8 10 10 12 13 13 15 14 12 12 12 11 11 9 8 7 8 9 7
14 7 5 6 6 7 12 16 23 19 4 18 10 4 5 13 15 13 7 2 0 3 6 6 6 7 9 10 11 13 14 14 13 13 13 11 10 8 8 7 7 8 8 7
14 10 14 13 8 7 21 21 21 24 14 13 24 12 13 15 16 13 5 2 2 4 6 7 7 7 9 10 12 13 13 13 14 14 11 10 7 6 5 5 5 5 6 7
11 14 15 18 6 8 13 23 24 29 27 21 15 21 13 17 18 11 3 2 3 4 5 7 9 9 11 12 13 13 13 13 13 10 7 5 2 4 2 2 4 4 5 4
9 9 14 20 13 9 13 17 23 26 25 28 25 20 0 10 5 7 3 4 4 5 5 5 8 9 11 13 13 13 13 14 10 7 2 4 4 3 2 1 1 2 3 4
11 9 8 7 10 7 17 22 21 20 23 23 24 18 7 10 8 6 5 3 4 3 3 5 8 10 11 13 13 13 13 11 6 3 4 5 5 4 3 3 2 3 2 3
15 13 6 5 11 11 2 5 22 23 20 21 15 6 5 7 5 6 5 4 2 1 2 5 7 9 12 13 15 12 9 8 4 4 5 5 5 5 5 5 4 3 2 3
15 9 7 8 14 8 11 7 11 19 20 22 18 16 12 7 7 7 5 3 2 2 4 6 7 10 12 14 15 11 8 4 4 5 4 5 5 6 7 7 7 5 4 3
11 8 7 8 8 11 4 13 7 7 13 12 16 11 12 11 9 5 9 2 3 5 6 7 8 9 11 13 12 9 9 5 5 6 5 7 5 6 6 7 8 7 6 5
11 7 13 8 8 4 7 14 12 9 2 6 10 10 9 9 4 5 3 7 8 8 8 8 9 9 9 10 10 10 6 6 8 6 7 6 6 7 6 6 4 6 7 7
13 13 8 6 7 13 16 17 12 8 10 10 7 7 6 4 3 5 7 9 10 10 11 11 10 9 7 7 7 7 7 4 2 5 5 5 5 4 4 5 5 6 7 8
8 5 8 10 5 7 21 8 9 8 10 7 6 4 4 6 8 10 9 9 9 9 9 8 8 8 7 4 5 6 4 4 3 3 4 3 4 3 4 4 5 5 6 5
5 5 4 7 8 10 18 7 11 8 6 5 3 4 6 9 10 12 12 12 11 10 8 7 8 10 10 8 6 7 4 3 5 5 4 4 5 5 4 4 5 4 5 5
6 13 12 4 11 9 11 14 12 8 3 1 4 5 6 7 11 13 12 13 12 10 10 9 10 10 10 9 7 7 6 7 6 6 6 5 4 5 5 4 4 4 2 3
9 13 10 6 14 7 15 12 8 8 7 6 6 7 9 11 12 12 12 11 10 10 9 9 10 10 9 10 8 8 8 9 9 7 6 6 4 3 4 4 3 4 1 4
Wind_Direction
184 205 206 209 212 236 274 269 267 222 256 288 259 266 263 254 239 211 202 175 138 101 80 64 56 52 58 55 62 61 69 274 245 214 184 206 220 222 235 244 243 240 224 216
173 223 223 220 209 223 223 250 260 273 275 254 268 264 271 265 268 247 195 168 141 127 101 78 64 56 53 54 47 50 45 33 348 219 193 206 209 227 226 223 230 222 221 224
214 203 223 189 193 208 222 236 253 262 252 260 263 271 252 131 155 160 165 145 141 127 109 90 78 64 54 45 35 38 32 34 31 47 192 134 140 195 223 227 222 221 206 208
232 208 198 199 206 206 229 223 250 260 267 270 143 283 177 162 162 171 159 155 142 133 116 97 84 70 60 44 36 29 24 25 28 10 353 220 256 262 253 250 239 236 224 223
196 203 201 210 207 194 246 181 237 258 265 273 252 253 253 177 180 175 164 154 146 134 123 106 81 63 51 26 15 10 8 16 17 13 4 334 312 307 323 310 293 267 246 224
243 184 219 229 228 196 111 177 210 242 253 248 244 242 250 214 200 173 164 159 150 135 120 109 79 39 28 18 2 353 349 351 355 351 344 332 314 301 293 290 292 279 274 256
218 229 211 200 170 197 196 179 223 224 210 252 306 223 244 101 167 169 165 155 147 135 117 84 48 23 4 354 343 338 336 331 331 326 320 318 310 302 290 286 283 280 267 239
217 219 211 198 212 185 202 195 210 252 250 257 132 236 201 98 143 154 154 153 145 130 106 70 23 357 346 335 324 321 320 316 316 308 301 296 292 293 295 290 288 278 275 278
201 222 202 194 211 200 200 219 228 266 282 271 234 169 148 148 147 157 159 158 148 127 103 64 346 338 323 326 325 317 303 299 300 299 290 286 289 289 288 289 292 291 288 283
198 163 189 158 203 224 179 185 163 215 215 240 232 237 255 176 173 169 164 164 158 149 173 319 320 331 330 331 321 309 302 303 303 289 283 281 279 277 279 282 285 290 292 287
182 206 151 171 208 181 197 200 203 200 231 262 272 257 5 176 176 175 162 165 164 194 274 310 330 338 325 316 319 316 313 313 311 304 291 276 269 267 273 279 291 301 297 282
193 195 184 200 118 289 214 206 200 190 170 238 285 253 357 158 171 170 158 164 147 273 331 339 341 341 339 336 333 324 318 310 303 299 286 270 259 261 265 280 302 310 307 312
172 190 172 194 201 215 231 216 219 223 249 220 214 146 127 143 159 170 179 122 162 344 334 330 333 328 323 323 318 314 306 304 297 293 283 263 249 253 273 304 323 323 319 316
183 186 232 238 279 186 209 214 215 211 225 221 229 221 174 182 180 187 196 213 293 306 319 316 312 313 313 313 307 308 308 306 300 297 282 268 272 269 293 324 333 329 330 325
210 237 236 252 241 249 223 215 211 217 224 222 245 237 200 199 198 194 215 257 308 301 305 316 317 323 316 312 314 311 314 312 307 293 267 270 237 264 316 329 335 344 343 6
188 229 227 232 212 250 236 235 216 226 233 245 249 254 19 164 161 199 215 244 251 284 317 327 324 328 330 322 313 316 315 317 309 274 180 165 200 182 172 135 45 30 30 43
154 167 180 225 193 242 262 225 224 220 230 235 236 237 182 186 205 206 232 216 269 295 319 340 335 342 330 330 319 308 324 315 298 190 177 181 182 173 134 83 78 62 83 99
168 161 162 141 152 224 289 336 215 223 219 231 247 224 212 209 191 219 217 234 248 256 304 327 328 328 340 326 322 310 321 321 265 195 200 193 179 171 147 149 126 150 128 128
184 144 144 173 208 289 218 190 183 198 230 230 230 229 209 193 195 220 210 198 219 294 298 304 323 330 332 335 329 324 320 285 225 215 188 199 191 180 178 158 150 140 131 117
182 192 193 178 207 220 1 154 162 170 253 206 215 215 193 177 221 230 138 161 250 261 274 298 315 315 326 343 340 323 311 253 221 201 211 218 189 199 181 162 155 152 150 131
162 165 202 189 224 262 141 150 153 182 99 135 179 190 192 208 258 7 314 284 287 281 282 291 300 309 334 342 338 323 321 229 237 222 206 195 188 189 175 167 145 153 143 136
170 161 179 179 212 237 156 157 181 109 123 126 149 150 182 230 249 263 280 287 294 298 289 286 292 298 326 332 331 327 316 328 217 207 204 190 177 151 154 156 146 150 146 141
190 191 163 192 196 125 168 154 128 144 142 137 151 173 237 260 267 279 277 286 291 296 296 301 290 288 292 286 285 312 327 299 174 178 175 164 145 152 174 156 158 156 154 155
187 132 137 153 181 175 180 144 167 161 141 134 164 257 258 261 270 274 276 279 280 280 284 290 289 291 299 288 264 280 281 158 205 179 168 163 160 163 168 182 186 180 170 170
190 172 158 118 157 144 182 185 173 163 151 178 215 242 262 274 270 276 279 282 283 285 284 284 289 290 292 297 262 251 230 204 190 195 155 168 179 183 171 183 183 198 165 199
181 178 175 187 161 171 177 191 204 199 204 215 241 252 266 271 276 280 279 279 278 275 278 278 281 284 293 294 266 247 226 222 182 212 174 157 167 174 166 154 130 65 98 174